Location: Unspecified
(0.0000°N, 0.0000°E)
Time: 03:14:09
(UTC+00:00)

STARLINK-5332 - Pass Details

Date: 25 January 2023
Orbit: 269 x 309 km, 70.0° (Epoch: 25 January)

Event Time Altitude Azimuth Distance (km) Brightness Sun altitude
Rises 19:46:40 0° 231° (SW) 2,030 7.8 -22.2°
Reaches altitude 10° 19:50:07 10° 280° (W) 1,194 6.1 -23.0°
Maximum altitude 19:50:24 10° 286° (WNW) 1,187 6.0 -23.1°
Drops below altitude 10° 19:50:42 10° 293° (WNW) 1,193 5.9 -23.2°
Enters shadow 19:51:27 - 309° (NW) 1,269 5.9 -23.4°
